This demonstration page uses our WeatherBlox Daily Observations layout. Learn more.

Left ArrowRight Arrow

Hourly Observations for August 12, 2015

Temp ( °F °C ) Dew Point ( °F °C ) Humidity (%) Winds ( mph kmh ) Pressure ( in mb ) Visibility ( mi km ) Precip ( " mm )
12:51 am 00:51 Clear 72 22.2 65 18.3 79 79 WNW 10 17 29.98 1015 10 16 0.00 0.03
1:51 am 01:51 Clear 70 21.1 66 18.9 87 87 NNW 7 11 29.97 1015 10 16 0.00 0.00
2:51 am 02:51 Clear 70 21.1 65 18.3 84 84 NW 6 9 29.95 1014 10 16 0.00 0.00
3:51 am 03:51 Clear 71 21.7 65 18.3 81 81 N 6 9 29.94 1014 10 16 0.00 0.00
4:51 am 04:51 Clear 69 20.6 66 18.9 90 90 ESE 3 6 29.94 1014 10 16 0.00 0.00
5:51 am 05:51 Sunny 68 20 66 18.9 93 93 NE 3 6 29.49 999 10 16 0.00 0.00
6:51 am 06:51 Partly Cloudy 76 24.5 74 23.2 92 92 E 5 7 29.88 1012 10 16 0.00 0.00
7:51 am 07:51 Sunny 76 24.4 66 18.9 72 72 ESE 6 9 29.98 1015 10 16 0.00 0.00
8:51 am 08:51 Sunny 80 26.7 65 18.3 60 60 S 6 9 30.01 1016 10 16 0.00 0.00
9:51 am 09:51 Sunny 86 30 60 15.6 42 42 S 5 7 30.01 1016 10 16 0.00 0.00
10:51 am 10:51 Sunny 90 32.2 54 12.2 29 29 S 10 17 29.98 1015 10 16 0.00 0.00
11:51 am 11:51 Sunny 91 32.8 53 11.7 27 27 S 8 13 29.98 1015 10 16 0.00 0.00
12:51 pm 12:51 Sunny 95 35 52 11.1 23 23 VRB 5 7 29.94 1014 10 16 0.00 0.00
1:51 pm 13:51 Sunny 99 37.2 49 9.4 18 18 Calm 29.91 1013 10 16 0.00 0.00
2:51 pm 14:51 Sunny 101 38.3 47 8.3 16 16 undefined N/A 29.88 1012 10 16 0.00 0.00
3:51 pm 15:51 Mostly Sunny 102 38.9 47 8.3 15 15 E 9 15 29.84 1011 10 16 0.00 0.00
4:51 pm 16:51 Sunny 100 37.8 47 8.3 16 16 SW 7 11 29.83 1010 10 16 0.00 0.00
5:51 pm 17:51 Sunny 100 37.8 45 7.2 15 15 WNW 6 9 29.83 1010 10 16 0.00 0.00
6:51 pm 18:51 Sunny 80 26.7 35 1.7 20 20 NNW 9 15 29.95 1014 10 16 0.00 0.00
7:51 pm 19:51 Clear 89 31.7 54 12.2 30 30 NW 6 9 29.88 1012 10 16 0.00 0.00
8:51 pm 20:51 Clear 85 29.4 55 12.8 36 36 NW 7 11 29.89 1012 10 16 0.00 0.00
9:51 pm 21:51 Clear 82 27.8 58 14.4 44 44 N 8 13 29.91 1013 10 16 0.00 0.00
10:51 pm 22:51 Clear 82 27.8 56 13.3 41 41 WNW 3 6 29.92 1013 10 16 0.00 0.00
11:51 pm 23:51 Clear 79 26.1 58 14.4 49 49 Calm 29.92 1013 10 16 0.00 0.00

Powered by AerisWeather